Regional Weather Roundup
Issued by NWS

Home | Current Version | Previous Version | Text Only | Print | Product List | Glossary Off
Versions: 1 2 3 4 5 6 7 8 9 10 11 12 13 14 15 16 17 18 19 20 21 22 23 24 25 26 27 28 29 30 31 32 33 34 35 36 37 38 39 40 41 42 43 44 45 46 47 48 49 50

000
ASUS43 KFSD 271910
RWRSD

WEATHER ROUNDUP FOR SOUTH DAKOTA
NATIONAL WEATHER SERVICE SIOUX FALLS SD
100 PM CST SAT DEC 27 2014

NOTE: "FAIR" INDICATES FEW OR NO CLOUDS BELOW 12,000 FEET WITH NO
SIGNIFICANT WEATHER AND/OR OBSTRUCTIONS TO VISIBILITY.


SDZ001>005-009-010-012>017-272000-
NORTHWEST AND NORTH CENTRAL SOUTH DAKOTA

CITY           SKY/WX    TMP DP  RH WIND       PRES   REMARKS
BUFFALO          N/A     29  16  58 W20       29.93F WCI  16
FAITH            N/A     26  15  63 SW17      30.03F WCI  13
MOBRIDGE       SUNNY     20  15  81 S7        30.04F WCI  11
$$

SDZ012>016-024>037-041>051-057-063-072>074-272000-
SOUTHWEST AND SOUTH CENTRAL SOUTH DAKOTA

CITY           SKY/WX    TMP DP  RH WIND       PRES   REMARKS
RAPID CTY ARPT SUNNY     19  11  70 SE6       30.06F WCI  11
PIERRE         MOSUNNY   20  13  74 SW8       30.13F WCI  10
CUSTER         SUNNY     22   9  57 W14G22    29.96F WCI   9
ELLSWORTH AFB  SUNNY     24  13  63 SW6       30.05F WCI  16
PHILIP         SUNNY     24  17  74 SW10      30.12F WCI  14
PINE RIDGE     SUNNY     23  13  65 SW10      30.10F WCI  12
SPEARFISH      FAIR      27  12  54 W13       30.02F WCI  16
WINNER         FAIR      24  15  68 W12       30.14F WCI  13
$$

SDZ004>011-016>023-039-040-272000-
NORTHEAST SOUTH DAKOTA

CITY           SKY/WX    TMP DP  RH WIND       PRES   REMARKS
ABERDEEN       MOSUNNY   20  13  74 SW10      30.11F WCI   9
WATERTOWN      SUNNY     13   9  84 SW15      30.09F WCI  -3
SISSETON         N/A     23  16  74 W15       30.07F WCI  10
$$

SDZ017-020-022-023-036>040-048>070-272000-
SOUTHEAST SOUTH DAKOTA

CITY           SKY/WX    TMP DP  RH WIND       PRES   REMARKS
SIOUX FALLS    SUNNY     13   8  81 W8        30.17F WCI   2
HURON          SUNNY     15   9  76 S8        30.16F WCI   4
CHAMBERLAIN    SUNNY     19  12  76 CALM      30.16F
MITCHELL       SUNNY     18  12  77 W9        30.19F WCI   7
YANKTON        SUNNY     18  10  73 W10       30.22F WCI   6
$$

ABBREVIATIONS USED IN REMARKS
   TC - TEMPERATURE IN CELSIUS
  WCI - WIND CHILL INDEX
   HX - HEAT INDEX
  VSB - VISIBILITY



USA.gov is the U.S. government's official web portal to all federal, state and local government web resources and services.